TimeCST,TemperatureF,Dew PointF,Humidity,Sea Level PressureIn,VisibilityMPH,Wind Direction,Wind SpeedMPH,Gust SpeedMPH,PrecipitationIn,Events,Conditions,WindDirDegrees,DateUTC
12:15 AM,27.5,17.8,67,30.27,10.0,WNW,9.2,-,N/A,,Clear,300,2013-02-20 06:15:00
12:35 AM,27.1,17.6,67,30.27,10.0,NW,10.4,-,N/A,,Clear,310,2013-02-20 06:35:00
12:55 AM,27.3,17.4,66,30.29,10.0,WNW,9.2,-,N/A,,Clear,290,2013-02-20 06:55:00
1:15 AM,26.8,18.0,69,30.29,10.0,West,10.4,-,N/A,,Clear,280,2013-02-20 07:15:00
1:35 AM,26.6,17.4,68,30.29,10.0,West,6.9,-,N/A,,Clear,280,2013-02-20 07:35:00
1:55 AM,26.6,16.9,67,30.29,10.0,WNW,8.1,-,N/A,,Clear,290,2013-02-20 07:55:00
2:15 AM,25.9,17.6,71,30.29,10.0,WNW,6.9,-,N/A,,Clear,290,2013-02-20 08:15:00
2:35 AM,25.7,18.1,73,30.28,10.0,WNW,5.8,-,N/A,,Clear,290,2013-02-20 08:35:00
2:55 AM,25.0,17.6,74,30.29,10.0,WNW,8.1,-,N/A,,Clear,300,2013-02-20 08:55:00
3:15 AM,24.8,17.4,74,30.28,10.0,NW,6.9,-,N/A,,Clear,320,2013-02-20 09:15:00
3:35 AM,25.7,15.3,65,30.29,10.0,NW,11.5,-,N/A,,Clear,320,2013-02-20 09:35:00
3:55 AM,24.8,16.0,69,30.29,10.0,NW,8.1,-,N/A,,Clear,320,2013-02-20 09:55:00
4:15 AM,24.8,15.1,67,30.29,10.0,NNW,13.8,19.6,N/A,,Clear,340,2013-02-20 10:15:00
4:35 AM,24.3,14.0,65,30.30,10.0,NNW,10.4,-,N/A,,Clear,330,2013-02-20 10:35:00
4:55 AM,23.9,12.7,62,30.30,10.0,NW,12.7,-,N/A,,Clear,320,2013-02-20 10:55:00
5:15 AM,23.4,13.6,66,30.31,10.0,NW,9.2,-,N/A,,Clear,320,2013-02-20 11:15:00
5:35 AM,22.8,13.6,68,30.31,10.0,NW,6.9,-,N/A,,Clear,320,2013-02-20 11:35:00
5:55 AM,22.8,13.5,67,30.32,10.0,NNW,9.2,-,N/A,,Clear,330,2013-02-20 11:55:00
6:15 AM,22.6,13.3,67,30.32,10.0,NW,8.1,-,N/A,,Clear,320,2013-02-20 12:15:00
6:35 AM,22.1,13.8,70,30.33,10.0,NW,6.9,-,N/A,,Clear,310,2013-02-20 12:35:00
6:55 AM,22.5,14.2,71,30.34,10.0,NW,6.9,-,N/A,,Clear,310,2013-02-20 12:55:00
7:15 AM,23.0,14.2,69,30.33,10.0,NW,6.9,-,N/A,,Clear,320,2013-02-20 13:15:00
7:55 AM,23.7,14.5,68,30.36,10.0,NW,9.2,-,N/A,,Clear,320,2013-02-20 13:55:00
8:15 AM,24.1,14.5,67,30.37,10.0,NW,6.9,-,N/A,,Clear,320,2013-02-20 14:15:00
8:35 AM,24.6,14.0,64,30.37,10.0,NNW,6.9,-,N/A,,Clear,330,2013-02-20 14:35:00
8:55 AM,24.8,13.6,63,30.37,10.0,WNW,6.9,-,N/A,,Clear,300,2013-02-20 14:55:00
9:35 AM,25.5,14.0,62,30.38,10.0,NW,9.2,-,N/A,,Clear,310,2013-02-20 15:35:00
10:15 AM,26.8,15.6,63,30.40,10.0,NW,5.8,-,N/A,,Clear,320,2013-02-20 16:15:00
10:35 AM,26.6,16.2,65,30.39,10.0,NW,6.9,-,N/A,,Clear,320,2013-02-20 16:35:00
10:55 AM,27.3,16.0,62,30.39,10.0,NW,6.9,-,N/A,,Clear,310,2013-02-20 16:55:00
11:15 AM,27.7,16.2,62,30.39,10.0,NW,6.9,-,N/A,,Clear,320,2013-02-20 17:15:00
11:35 AM,27.5,15.6,61,30.38,10.0,NNW,5.8,-,N/A,,Clear,340,2013-02-20 17:35:00
11:55 AM,27.9,16.3,62,30.37,10.0,NNW,5.8,-,N/A,,Clear,330,2013-02-20 17:55:00
12:15 PM,28.2,17.2,63,30.37,10.0,North,5.8,-,N/A,,Clear,350,2013-02-20 18:15:00
12:35 PM,28.4,16.3,61,30.37,10.0,NNW,8.1,-,N/A,,Clear,340,2013-02-20 18:35:00
12:55 PM,28.9,17.4,62,30.37,10.0,North,8.1,-,N/A,,Clear,350,2013-02-20 18:55:00
1:15 PM,29.1,17.6,62,30.36,10.0,NW,8.1,-,N/A,,Clear,320,2013-02-20 19:15:00
1:35 PM,28.9,18.1,64,30.36,10.0,North,6.9,-,N/A,,Clear,350,2013-02-20 19:35:00
1:55 PM,28.9,17.2,62,30.36,10.0,NNW,6.9,-,N/A,,Clear,330,2013-02-20 19:55:00
2:15 PM,29.1,17.4,62,30.35,10.0,NNW,6.9,-,N/A,,Clear,330,2013-02-20 20:15:00
2:35 PM,29.3,18.0,63,30.34,10.0,WNW,5.8,-,N/A,,Clear,300,2013-02-20 20:35:00
2:55 PM,29.3,18.1,63,30.34,10.0,NNE,5.8,-,N/A,,Clear,20,2013-02-20 20:55:00
3:15 PM,29.1,18.9,66,30.32,10.0,North,8.1,-,N/A,,Clear,10,2013-02-20 21:15:00
3:35 PM,28.9,18.7,66,30.31,10.0,North,6.9,-,N/A,,Clear,10,2013-02-20 21:35:00
3:55 PM,28.8,17.6,63,30.33,10.0,North,4.6,-,N/A,,Clear,360,2013-02-20 21:55:00
4:15 PM,28.9,18.1,64,30.33,10.0,North,8.1,-,N/A,,Clear,350,2013-02-20 22:15:00
4:35 PM,28.8,19.4,68,30.30,10.0,NNE,9.2,-,N/A,,Clear,30,2013-02-20 22:35:00
4:55 PM,28.9,19.2,67,30.30,10.0,NNE,10.4,-,N/A,,Clear,20,2013-02-20 22:55:00
5:15 PM,29.1,19.2,67,30.30,10.0,North,8.1,-,N/A,,Clear,10,2013-02-20 23:15:00
5:35 PM,29.1,19.8,68,30.31,10.0,NNE,9.2,-,N/A,,Clear,20,2013-02-20 23:35:00
5:55 PM,28.4,19.2,69,30.30,10.0,NNE,10.4,-,N/A,,Clear,30,2013-02-20 23:55:00
6:15 PM,28.2,19.2,69,30.32,10.0,NNE,6.9,-,N/A,,Clear,20,2013-02-21 00:15:00
6:35 PM,28.2,19.2,69,30.32,10.0,NNE,6.9,-,N/A,,Clear,30,2013-02-21 00:35:00
6:55 PM,27.9,19.6,71,30.30,10.0,NNE,8.1,-,N/A,,Clear,20,2013-02-21 00:55:00
7:15 PM,27.3,19.9,74,30.32,10.0,North,4.6,-,N/A,,Clear,350,2013-02-21 01:15:00
7:35 PM,26.8,19.8,75,30.32,10.0,North,4.6,-,N/A,,Clear,360,2013-02-21 01:35:00
7:55 PM,25.7,19.6,78,30.32,10.0,North,3.5,-,N/A,,Clear,350,2013-02-21 01:55:00
8:15 PM,26.6,20.8,79,30.31,10.0,NNE,8.1,-,N/A,,Scattered Clouds,20,2013-02-21 02:15:00
8:35 PM,26.6,20.1,77,30.31,10.0,North,5.8,-,N/A,,Clear,10,2013-02-21 02:35:00
8:55 PM,26.4,20.1,77,30.32,10.0,North,5.8,-,N/A,,Clear,10,2013-02-21 02:55:00
9:15 PM,26.1,20.1,78,30.32,10.0,NNE,4.6,-,N/A,,Clear,20,2013-02-21 03:15:00
9:35 PM,25.0,19.4,79,30.33,10.0,North,3.5,-,N/A,,Clear,350,2013-02-21 03:35:00
9:55 PM,24.6,19.2,80,30.33,10.0,North,4.6,-,N/A,,Clear,350,2013-02-21 03:55:00
10:15 PM,24.8,19.9,82,30.32,10.0,North,3.5,-,N/A,,Clear,10,2013-02-21 04:15:00
10:35 PM,24.4,19.4,81,30.32,10.0,North,4.6,-,N/A,,Clear,360,2013-02-21 04:35:00
10:55 PM,24.3,19.4,82,30.33,10.0,North,3.5,-,N/A,,Clear,350,2013-02-21 04:55:00
11:15 PM,23.9,19.2,82,30.32,10.0,North,4.6,-,N/A,,Clear,10,2013-02-21 05:15:00
11:35 PM,23.9,19.4,83,30.32,10.0,North,3.5,-,N/A,,Clear,360,2013-02-21 05:35:00
11:55 PM,24.1,20.3,85,30.32,10.0,North,3.5,-,N/A,,Clear,10,2013-02-21 05:55:00